Tracking 30743 objects as of 24-Jun-2025
HD Live streaming from Space Station
objects crossing your sky now

COSMOS 1408 DEB

Track COSMOS 1408 DEB now!
10-day predictions


NORAD ID: 50404
Int'l Code: 1982-092ADS
Perigee: 431.7 km
Apogee: 796.5 km
Inclination: 82.2 °
Period: 96.8 minutes
Semi major axis: 6985 km
RCS: Unknown
Launch date: September 16, 1982
Source: Commonwealth of Independent States (former USSR) (CIS)
Launch site: PLESETSK MISSILE AND SPACE COMPLEX (PKMTR)

Note: This is SATELLITE DEBRIS
Your satellite tracking list
Your tracking list is empty




NASA's NSSDC Master Catalog

Two Line Element Set (TLE):
1 50404U 82092ADS 25175.01032692  .00035166  00000-0  20686-2 0  9992
2 50404  82.2210  26.2070 0261138  53.8541 308.6533 14.87109656186240
Source of the keplerian elements: AFSPC